Overview Statistics Trail Chart Weather Telemetry Raw packets
 

This is the latest recevied weather packets stored in our database for station/object KD4EG. If no packets are shown the sender has not sent any weather packets the latest 10 day(s).

<< 73 74 75 76 77 78 79 >>
Time Temp. Humidity Pressure Rain* Wind** Luminosity Snow
1788114339 31.11° C 62% 1023.5 hPa 0 mm - 667 W/m² -
1788114035 31.11° C 61% 1023.6 hPa 0 mm - 648 W/m² -
1788113731 31.67° C 62% 1023.6 hPa 0 mm - 191 W/m² -
1788113430 30.56° C 61% 1023.7 hPa 0 mm - 635 W/m² -
1788113130 30.56° C 62% 1024.1 hPa 0 mm - 634 W/m² -
1788112829 30.56° C 61% 1023.9 hPa 0 mm - 604 W/m² -
1788112528 30.56° C 61% 1024 hPa 0 mm - 619 W/m² -
1788112223 30.56° C 63% 1024.2 hPa 0 mm - 667 W/m² -
1788111919 30° C 64% 1024.1 hPa 0 mm - 634 W/m² -
1788111614 30.56° C 64% 1024.3 hPa 0 mm - 646 W/m² -
1788111310 30° C 64% 1024.5 hPa 0 mm - 651 W/m² -
1788111010 30° C 65% 1024.5 hPa 0 mm - 664 W/m² -
1788110707 28.89° C 66% 1024.7 hPa 0 mm - 654 W/m² -
1788110403 29.44° C 67% 1025 hPa 0 mm - 606 W/m² -
1788110097 29.44° C 66% 1024.9 hPa 0 mm - 598 W/m² -
1788109797 28.89° C 67% 1025.3 hPa 0 mm - 655 W/m² -
1788109492 29.44° C 68% 1025.3 hPa 0 mm - 707 W/m² -
1788109190 28.89° C 69% 1025.2 hPa 0 mm - 592 W/m² -
1788108887 28.89° C 70% 1025.7 hPa 0 mm - 748 W/m² -
1788108582 28.33° C 69% 1025.6 hPa 0 mm - 301 W/m² -
1788108278 28.89° C 70% 1025.7 hPa 0 mm - 262 W/m² -
1788107974 28.89° C 68% 1025.8 hPa 0 mm - 297 W/m² -
1788107671 28.33° C 70% 1025.7 hPa 0 mm - 240 W/m² -
1788107370 27.78° C 70% 1025.8 hPa 0 mm - 646 W/m² -
1788107066 28.33° C 71% 1025.6 hPa 0 mm - 634 W/m² -

* Rain latest hour (hover to see other rain measurements)
** Current wind speed in m/s (hover to see current wind gust speed)